Погода в Лиде

Погода в Лиде : погода сейчас, прогноз погоды и архив. Всё, что Вы хотите узнать о погоде в Лиде!

Хотите узнать прогноз погоды в Лиде? Тогда Вам сюда: Погода в Лиде

Поиск расширенной информации на нашем сайте:

Другие новости

Новости СМИ2

Главная страница сайта

Новости сайта

03.07.2017

Напоминаем, что на нашем специализированном сайте Метеоцентр.Азия вы можете получить высокодетализированные автоматические прогнозы погоды по пунктам России, СНГ и мира в авиационном формате (включающие направление и скорость ветра, видимость, явления погоды, количество и форму облачности, нижнюю и верхнюю границу облачности).

Рекомендуем: купить автоприцеп для легкового авто

Погода в Лиде - сегодня

Время (UTC), дата Ветер
(°,м/с) 
Видим.   Явления Облачность Т
(°С)
Тd
(°С)
f(%) Тe
(°С)
Pmin
(гПа)
dP
(гПа)
Po
(мм)
O2
(г/м3)
Тmin Tmax R s Состояние
почвы
06 12.12.17 120 (ЮВ) 9000 м  дымка  6/0 средняя 
[Ac trans]
+1.4 +0.6 94 +1  998.6  -0.4  735  294  -0.3      <0.5  равномерный
мокрый или
старый снег
100% 
09 12.12.17 170 (Ю) 10 км    9/0 средняя 
[Ac trans]
+3.4 +1.9 90 +3  998.8  0.3  735  292           
12 12.12.17 180 (Ю) 10 км    8/0 средняя 
[Ac trans]
+6.4 +4.1 85 +5  998.5  735  289           
15 12.12.17 230 (ЮЗ) 10 км  в посл. час дождь  9/0 средняя 
[Ac trans]
+8.8 +5.8 81 +8  1001  2.5  737  287      0.0     
18 12.12.17 250 (З) 10 км  {дождь}  9/0 средняя 
[Ac trans]
+8 +5.1 82 +7  1002.4  1.3  738  288    +9  0.0     
21 12.12.17 230 (ЮЗ) 8-15{15}  11000 м    3/0 средняя 
[Ac trans]
+6.3 -0.2 63 +3  1005.8  3.2  740  291           
00 13.12.17 240 (ЮЗ) 6-11{15}  11000 м    5/0 средняя 
[Ac trans]
+4 -1.9 65 +1  1007.8  1.8  741  295           
03 13.12.17 250 (З) 5-10{15}  10 км    9/0 средняя 
[Ac trans]
+2.9 -2.2 69 1009.2  1.4  742  296           
06 13.12.17 240 (ЮЗ) 3{10}  10 км    6/0 средняя 
[Ac trans]
+2.2 -2.1 73 +1  1011.8  2.4  744  298  +2.1         
09 13.12.17 220 (ЮЗ) 10 км    6/0 средняя, верхняя 
[Ac trans|Ci fib]
+0.8 -2.5 79 -1  1014.2  2.4  746  300           
12 13.12.17 210 (ЮЗ) 10 км    3/0 верхняя 
[Ci fib]
+2.3 -1.7 75 +1  1014.4  0.2  746  298           
15 13.12.17 тихо ()   10 км    ясно 
-0.4 -2.5 86 -0  1014.4  -0.2  746  301           
18 13.12.17 150 (ЮВ) 9000 м  дымка  ясно 
-2.1 -3.4 91 -2  1014.1  -0.4  746  303    +2.6       
21 13.12.17 150 (ЮВ) 8000 м  дымка  ясно 
-3.2 -4.2 93 -3  1012.6  -1.5  745  304           
00 14.12.17 140 (ЮВ) 7000 м  дымка  ясно 
-3.7 -4.5 94 -3  1010.7  -2.1  743  304           
03 14.12.17 140 (ЮВ) 10 км    8/0 средняя 
[Ac trans]
-2.3 -3.8 89 -3  1007.4  -3  741  301           
06 14.12.17 130 (ЮВ) 10 км    6/0 средняя 
[Ac trans]
-2.2 -4.4 85 -3  1004.2  -3.1  738  300  -4         
09 14.12.17 150 (ЮВ) 3{10}  10 км    9/9 500 м 
[Sc]
+0 -1.7 88 -2  1001.5  -2.6  737  297           
12 14.12.17 160 (Ю) 10 км    9/9 800 м 
[Sc]
+1 -1.6 83 -1  998.2  -3  734  295           
15 14.12.17 180 (Ю) 8000 м  слаб. дождь{снег}  10/10 240 м 
[Frnb|Ns]
+0.9 +0.1 94 -1  997.7  -0.5  734  295      0.5     
18 14.12.17 160 (Ю) 8000 м  в посл. час дождь{снег}  10/8 300 м средняя 
[St|Ac As]
+1.2 +0.4 94 996.1  -1.6  733  294    +1.5  0.9     
21 14.12.17 170 (Ю) 9000 м  дымка{дождь}  10/8 210 м средняя 
[St|Ac As]
+1.5 +0.4 92 995.6  -0.5  732  293           
00 15.12.17 240 (ЮЗ) 6-11{12}  9000 м  слаб. дождь  10/10 270 м 
[Frnb|Ns]
+1.5 +0.1 90 -2  997.4  1.8  734  294           
03 15.12.17 240 (ЮЗ) 6-11  9000 м  дымка{дождь}  10/4 270 м средняя 
[Ac trans]
+1.6 +0.3 91 -2  999  1.6  734  294      0.4     
06 15.12.17 190 (Ю) 11000 м  {дождь}  8/0 средняя 
[Ac trans]
+0.9 -1.7 83 -1  1000.2  1.1  736  296  +0.4    0.4     
Время (UTC), дата Ветер
(°,м/с) 
Видим.   Явления Облачность Т
(°С)
Тd
(°С)
f(%) Тe
(°С)
Pmin
(гПа)
dP
(гПа)
Po
(мм)
O2
(г/м3)
Тmin Tmax R s Состояние
почвы

Для получения пояснительной информации подведите курсор к названию столбца.

ПОГОДА в Лиде - архив

Всё, что Вы хотите узнать о погоде в Лиде - удобно и подробно!

Выберите нужную дату (начиная с 1 января 2015* года) и нажмите кнопку "Найти".
Будут отображены архивные сводки погоды по пункту Лида, начиная с указанной даты.


Отображать данные в формате CSV (для использования в таблицах Excel)


Внимание! Наш архив погоды предназначен исключительно для личного некоммерческого использования в познавательных целях. Если Вам необходимы официальные справки о состоянии погоды (для производственных, юридических, коммерческих и т.п. целей), обращайтесь в органы Росгидромета.

*Примечание: данная дата относится к архиву по метеостанциям СССР (Россия, СНГ, Балтия).
Архив по метеостанциям Зарубежной Европы и Азии (кроме Китая) хранится 10 дней, по другим регионам земного шара (Китай, Африка, Америка, Австралия, Океания) - 1 день.

Лида - район местоположения метеостанции


Название, широта, долгота, высота метеостанции:
Лида 53.9°ш. 25.3°д. 157 м над ур. моря [Беларусь]

Дополнительная информация

В oтличие oт бoльшинства пoгoдных сайтoв мы публикуем пoдрoбную метеoинфoрмацию в детальнoм прoфессиoнальнoм фoрмате.

Характеристики температуры и влажнoсти вoздуха измеряются на высoте 2 м в тени вдали oт зданий и деревьев.
Скoрoсть ветра измеряется на высoте 10 м (на урoвне рoста челoвека скoрoсть ветра ниже в 1.5-2 раза). Если метеoстанция нахoдится в гoрoде или в лесу, тo скoрoсть ветра занижена на 2-4 м/с пo сравнению с oткрытым местoм. Скoрoсть ветра над акватoриями крупных рек и oзёр, а также на вершинах хoлмoв на 2-5 м/с выше, чем в oбычных услoвиях.
Атмoсфернoе давление в разных тoчках местнoсти мoжет значительнo oтличаться oт давления на метеoстанции, в зависимoсти oт услoвий рельефа (при пoдъёме на 10 м давление пoнижается примернo на 1 мм рт.ст.).